Change the Weather History Date:

Friday, September 6, 2013

  Actual Average (KABQ) Record (KABQ)
Temperature  
Mean Temperature 65 °F 73 °F  
Max Temperature 85 °F 84 °F 98 °F (1979)
Min Temperature 45 °F 61 °F 46 °F (1912)
Degree Days  
Heating Degree Days 0 0  
Month to date heating degree days 0  
Since 1 July heating degree days 0  
Cooling Degree Days 0 8  
Month to date cooling degree days 51  
Year to date cooling degree days 1208  
Growing Degree Days 15 (Base 50)    
Moisture  
Dew Point 35 °F    
Average Humidity 36    
Maximum Humidity 67    
Minimum Humidity 15    
Precipitation  
Precipitation 0.00 in 0.03 in 0.72 in (1991)
Month to date precipitation 0.22  
Year to date precipitation 6.50  
Snow  
Snow 0.00 in - - ()
Month to date snowfall  
Since 1 July snowfall  
Since 1 September snowfall  
Snow Depth -    
Sea Level Pressure  
Sea Level Pressure 30.33 in    
Wind  
Wind Speed 4 mph (SE)    
Max Wind Speed 14 mph    
Max Gust Speed 18 mph    
Visibility 10 miles    
Events      
T = Trace of Precipitation, MM = Missing Value Source: NWS Daily Summary

Daily Weather History Graph

Daily Weather History Graph

Search for Another Location

Airport or City:

Trip Planner

Search our weather history database for the weather conditions in past years. The results will help you decide how hot, cold, wet, or windy it might be!

Date:

Astronomy

Sep. 06, 2013 Rise Set
Actual Time 6:40 AM MDT 7:23 PM MDT
Civil Twilight 6:14 AM MDT 7:48 PM MDT
Nautical Twilight 5:44 AM MDT 8:19 PM MDT
Astronomical Twilight 5:13 AM MDT 8:49 PM MDT
Moon 7:50 AM MDT (9/6) 7:55 PM MDT (9/6)
Length of Visible Light 13h 33m
Length of Day
12h 42m
New Moon, 2% of the Moon is Illuminated
Sep 6
New Moon
Sep 12
First Quarter
Sep 19
Full
Sep 26
Last Quarter
Oct 4
New

Hourly Weather History & Observations

Time (MDT) Temp. Windchill Dew Point Humidity Pressure Visibility Wind Dir Wind Speed Gust Speed Precip Events Conditions
12:15 AM 54.3 °F - 32.0 °F 43% 30.38 in 10.0 mi Calm Calm - N/A   Clear
12:35 AM 52.3 °F - 31.1 °F 44% 30.38 in 10.0 mi Calm Calm - N/A   Clear
12:55 AM 53.2 °F - 31.6 °F 44% 30.38 in 10.0 mi NE 3.5 mph - N/A   Clear
1:15 AM 52.2 °F - 32.4 °F 47% 30.38 in 10.0 mi NE 3.5 mph - N/A   Clear
1:35 AM 52.2 °F - 32.0 °F 46% 30.38 in 10.0 mi East 5.8 mph - N/A   Clear
1:55 AM 51.6 °F - 32.0 °F 47% 30.38 in 10.0 mi ENE 3.5 mph - N/A   Clear
2:15 AM 51.3 °F - 33.6 °F 51% 30.37 in 10.0 mi Calm Calm - N/A   Clear
2:35 AM 49.6 °F - 34.7 °F 56% 30.38 in 10.0 mi ENE 3.5 mph - N/A   Clear
2:55 AM 51.1 °F - 34.7 °F 54% 30.38 in 10.0 mi Calm Calm - N/A   Clear
3:15 AM 48.2 °F - 34.2 °F 58% 30.37 in 10.0 mi Calm Calm - N/A   Clear
3:35 AM 48.2 °F - 34.7 °F 60% 30.37 in 10.0 mi North 3.5 mph - N/A   Clear
3:55 AM 47.5 °F - 34.9 °F 62% 30.37 in 10.0 mi North 3.5 mph - N/A   Clear
4:15 AM 46.6 °F - 34.9 °F 64% 30.37 in 10.0 mi North 3.5 mph - N/A   Clear
4:35 AM 47.3 °F - 35.6 °F 64% 30.37 in 10.0 mi NW 5.8 mph - N/A   Clear
4:55 AM 47.7 °F - 34.7 °F 61% 30.37 in 10.0 mi NE 3.5 mph - N/A   Clear
5:15 AM 46.6 °F - 35.4 °F 65% 30.37 in 10.0 mi NE 4.6 mph - N/A   Clear
5:35 AM 46.6 °F - 35.1 °F 64% 30.37 in 10.0 mi NNW 5.8 mph - N/A   Clear
5:55 AM 48.7 °F - 36.5 °F 63% 30.38 in 10.0 mi North 3.5 mph - N/A   Clear
6:15 AM 45.7 °F 43.4 °F 35.2 °F 67% 30.38 in 10.0 mi North 4.6 mph - N/A   Clear
6:35 AM 45.5 °F - 35.2 °F 67% 30.38 in 10.0 mi Calm Calm - N/A   Clear
6:55 AM 45.1 °F - 34.2 °F 65% 30.39 in 10.0 mi Calm Calm - N/A   Clear
7:15 AM 47.3 °F - 35.1 °F 62% 30.39 in 10.0 mi North 3.5 mph - N/A   Clear
7:35 AM 51.4 °F - 36.7 °F 57% 30.39 in 10.0 mi Calm Calm - N/A   Clear
7:55 AM 55.6 °F - 37.8 °F 51% 30.39 in 10.0 mi Calm Calm - N/A   Clear
8:15 AM 57.4 °F - 38.1 °F 49% 30.39 in 10.0 mi Calm Calm - N/A   Clear
8:35 AM 60.8 °F - 37.6 °F 42% 30.39 in 10.0 mi Calm Calm - N/A   Clear
8:55 AM 63.9 °F - 36.9 °F 37% 30.39 in 10.0 mi Calm Calm - N/A   Clear
9:15 AM 67.1 °F - 36.1 °F 32% 30.39 in 10.0 mi Calm Calm - N/A   Clear
9:35 AM 70.2 °F - 36.5 °F 29% 30.39 in 10.0 mi Calm Calm - N/A   Clear
9:55 AM 72.3 °F - 36.3 °F 27% 30.39 in 10.0 mi Calm Calm - N/A   Clear
10:15 AM 75.0 °F - 36.0 °F 24% 30.38 in 10.0 mi Calm Calm - N/A   Clear
10:35 AM 76.8 °F - 35.4 °F 22% 30.38 in 10.0 mi SE 4.6 mph - N/A   Clear
10:55 AM 78.6 °F - 35.8 °F 21% 30.38 in 10.0 mi South 5.8 mph - N/A   Clear
11:15 AM 79.5 °F - 36.7 °F 21% 30.37 in 10.0 mi WSW 4.6 mph - N/A   Clear
11:35 AM 79.5 °F - 34.5 °F 20% 30.37 in 10.0 mi North 3.5 mph - N/A   Clear
11:55 AM 80.6 °F - 34.7 °F 19% 30.36 in 10.0 mi SE 8.1 mph - N/A   Clear
12:15 PM 81.9 °F - 33.1 °F 17% 30.35 in 10.0 mi South 9.2 mph - N/A   Clear
12:35 PM 81.7 °F - 32.7 °F 17% 30.35 in 10.0 mi South 9.2 mph - N/A   Clear
12:55 PM 82.2 °F - 33.8 °F 17% 30.34 in 10.0 mi ESE 6.9 mph 11.5 mph N/A   Clear
1:15 PM 82.9 °F - 31.3 °F 15% 30.34 in 10.0 mi SE 9.2 mph - N/A   Clear
1:35 PM 82.8 °F - 30.9 °F 15% 30.33 in 10.0 mi SSE 5.8 mph - N/A   Clear
1:55 PM 83.5 °F - 32.9 °F 16% 30.32 in 10.0 mi SW 9.2 mph - N/A   Clear
2:15 PM 84.6 °F - 32.9 °F 16% 30.31 in 10.0 mi South 13.8 mph 18.4 mph N/A   Clear
2:35 PM 84.9 °F - 32.4 °F 15% 30.30 in 10.0 mi SSE 9.2 mph - N/A   Clear
2:55 PM 84.6 °F - 32.0 °F 15% 30.29 in 10.0 mi South 4.6 mph 16.1 mph N/A   Clear
3:15 PM 85.1 °F - 32.2 °F 15% 30.28 in 10.0 mi SE 10.4 mph - N/A   Clear
3:35 PM 85.3 °F - 32.0 °F 15% 30.28 in 10.0 mi SE 5.8 mph - N/A   Clear
3:55 PM 85.5 °F - 32.4 °F 15% 30.27 in 10.0 mi SE 6.9 mph - N/A   Clear
4:15 PM 84.9 °F - 32.0 °F 15% 30.26 in 10.0 mi SSE 5.8 mph - N/A   Clear
4:35 PM 84.7 °F - 31.8 °F 15% 30.26 in 10.0 mi West 3.5 mph - N/A   Clear
4:55 PM 84.6 °F - 32.0 °F 15% 30.25 in 10.0 mi SSW 4.6 mph - N/A   Clear
5:15 PM 84.4 °F - 32.7 °F 16% 30.25 in 10.0 mi Calm Calm - N/A   Clear
5:35 PM 84.2 °F - 32.5 °F 16% 30.24 in 10.0 mi SSW 5.8 mph - N/A   Clear
5:55 PM 83.5 °F - 33.3 °F 16% 30.24 in 10.0 mi SE 4.6 mph - N/A   Clear
6:15 PM 83.1 °F - 33.1 °F 16% 30.23 in 10.0 mi South 9.2 mph - N/A   Clear
6:35 PM 82.2 °F - 33.3 °F 17% 30.23 in 10.0 mi South 8.1 mph - N/A   Clear
6:55 PM 80.8 °F - 34.2 °F 19% 30.23 in 10.0 mi South 9.2 mph - N/A   Clear
7:15 PM 77.5 °F - 34.5 °F 21% 30.23 in 10.0 mi South 5.8 mph - N/A   Clear
7:35 PM 74.3 °F - 35.2 °F 24% 30.23 in 10.0 mi SSE 5.8 mph - N/A   Clear
7:55 PM 72.1 °F - 34.9 °F 26% 30.24 in 10.0 mi SE 8.1 mph - N/A   Clear
8:15 PM 71.1 °F - 32.9 °F 25% 30.25 in 10.0 mi SE 9.2 mph - N/A   Clear
8:35 PM 71.6 °F - 35.1 °F 26% 30.26 in 10.0 mi SE 10.4 mph - N/A   Clear
8:55 PM 71.2 °F - 40.5 °F 33% 30.26 in 10.0 mi SE 12.7 mph - N/A   Clear
9:15 PM 70.3 °F - 41.9 °F 36% 30.27 in 10.0 mi SE 11.5 mph - N/A   Clear
9:35 PM 69.6 °F - 43.0 °F 38% 30.28 in 10.0 mi SE 10.4 mph - N/A   Clear
9:55 PM 68.9 °F - 43.7 °F 40% 30.28 in 10.0 mi SSE 9.2 mph - N/A   Clear
10:15 PM 65.1 °F - 42.4 °F 44% 30.29 in 10.0 mi South 6.9 mph - N/A   Clear
10:35 PM 63.0 °F - 42.1 °F 46% 30.31 in 10.0 mi WSW 6.9 mph - N/A   Clear
10:55 PM 61.7 °F - 41.2 °F 47% 30.31 in 10.0 mi SSW 6.9 mph - N/A   Clear
11:15 PM 61.0 °F - 41.5 °F 49% 30.31 in 10.0 mi South 6.9 mph - N/A   Clear
11:35 PM 60.6 °F - 41.4 °F 49% 30.31 in 10.0 mi SSE 3.5 mph - N/A   Clear
11:55 PM 60.8 °F - 42.6 °F 51% 30.31 in 10.0 mi SSE 4.6 mph - N/A   Clear